sat.trackr.live / text

‹ back to catalog

STARLINK-32012

NORAD 60027 · 2024-111M

PAYLOAD ACTIVE UNKNOWN

§ Identity

Operator
Country
US
Launch date
2024-06-08
Launch site
AFETR
Launch vehicle
Mass (kg)
RCS (m²)

Purposes: comms

External: N2YO · Heavens-Above · Gunter

§ Orbital elements

Epoch: 2026-09-21T02:43:32.534400Z

Period
93.85 min
Inclination
53.1585°
Eccentricity
0.0001260
Mean motion
15.34394257 rev/d
Perigee alt
461.9 km
Apogee alt
463.6 km
Semi-major
6,840.9 km
B*
1.2248e-5
RAAN
246.4877°
Arg perigee
81.1003°
Mean anomaly
279.0143°
Rev number
12,897

§ Raw data

STARLINK-320121 60027U 24111M   26264.11357100  .00000037  00000+0  12248-4 0  99922 60027  53.1585 246.4877 0001260  81.1003 279.0143 15.34394257128970

JSON: /api/v1/satellites/60027 · /tle

For live sub-satellite position, see the globe view (requires WebGL).

§ Visibility from observer

Set your observer location to see the next 7 days of passes ≥ 10°. The values pass through the URL so the page stays shareable.

No JS? Fill the form by hand. The geolocation button needs JavaScript.